User: anonymous   Login
Location: Hancock Field Station
(44.9202°N, 120.4259°W)
Time: 03:30:05
(UTC-07:00)
Language:

Cosmos 1707 - Orbit

View from above orbital plane
View from above orbital plane
View from above satellite
View from above satellite

Ground track
Ground track

The orbit data is extracted from the following two-line orbital elements,

1 16326U 85113A   17178.74290501 +.00000589 +00000-0 +31372-4 0  9990
2 16326 082.5102 197.9802 0008924 264.5386 095.4827 15.13296284718665
Epoch (UTC): 27 June 2017 17:49:46
Eccentricity: 0.0008924
inclination: 82.5102°
perigee height: 520 km
apogee height: 532 km
right ascension of ascending node: 197.9802°
argument of perigee: 264.5386°
revolutions per day: 15.13296284
mean anomaly at epoch: 95.4827°
orbit number at epoch: 71866

The dashed part of the orbit path shows where the satellite is in the earth's shadow,  

DLR